Other Public Products
Issued by NWS Grand Forks, ND

Home | Current Version | Previous Version | Text Only | Print | Product List | Glossary Off
Versions: 1 2 3 4 5 6 7 8 9 10 11 12 13 14 15 16 17 18 19 20 21 22 23 24 25 26 27 28 29 30 31 32 33 34 35 36 37 38 39 40 41 42 43 44 45 46 47 48 49 50

754
FPUS83 KFGF 120131
OPUFGF
PRAIRIE TO PINES WEATHER ROUNDUP
NATIONAL WEATHER SERVICE EASTERN NORTH DAKOTA/GRAND FORKS ND
700 PM CST THU FEB 11 2016

 **SATELLITE DATA USED TO AUGMENT SKY COVER AT AUTOMATED STATIONS**
 *****  WEATHER ACROSS EASTERN NORTH DAKOTA  *****

CITY           SKY/WX    TMP DP  RH WIND       PRES   REMARKS
GRAND FORKS    CLOUDY    14   7  73 N10       30.28R WCI   1
GRAND FORKS AF CLOUDY    12   7  79 N8        30.28R WCI   1
GRAND CITY NWS NOT AVBL
BUXTON           N/A     11   8  88 NW3         N/A
DEVILS LAKE    FLURRIES   6   3  87 NW5       30.27R WCI  -3
FARGO          CLOUDY    13   5  70 NW7       30.26R WCI   3
WAHPETON ARPT  CLOUDY    14   9  79 NW6       30.26R WCI   5
$$

 *****  WEATHER ACROSS CENTRAL AND WESTERN NORTH DAKOTA  *****

CITY           SKY/WX    TMP DP  RH WIND       PRES   REMARKS
JAMESTOWN      CLOUDY    14   9  80 N9        30.24R WCI   2
BISMARCK       CLOUDY    24  15  68 N8        30.25R WCI  15
MINOT          CLOUDY    19  10  68 NW6       30.27R WCI  11
MINOT AFB      CLOUDY    17  12  81 CALM      30.27R
GARRISON         N/A     19  14  81 NW9       30.26R WCI   8
WILLISTON      FLURRIES  22  16  78 N7        30.27R WCI  13
DICKINSON      CLOUDY    22  18  85 CALM      30.18F
HETTINGER      CLOUDY    24  20  84 N7        30.21R WCI  16
$$

 *****  OTHER OBSERVATIONS NORTHEAST NORTH DAKOTA  *****

CITY           SKY/WX    TMP DP  RH WIND       PRES   REMARKS
WALHALLA       FAIR       9   7  92 NW6       30.30R WCI  -1
LANGDON        CLOUDY     7   1  78 N6        30.24R WCI  -3
CAVALIER       MOCLDY    10   5  79 NW7       30.30S WCI   0
GRAFTON        CLOUDY    10   5  79 N8        30.32R WCI  -1
CANDO          CLOUDY    10   7  85 N8        30.29R WCI  -1
FORT TOTTEN      N/A      6   2  84 CALM      29.95S
ROLLA          MOCLDY     9   5  85 N8        30.25R WCI  -4
RUGBY          CLOUDY    14   9  79 NW12      30.27R WCI   0
 ***** THE ABOVE OBSERVATIONS ARE NON NWS ARE NOT QUALITY
        CONTROLLED AND MAY MIS-REPORT RAIN FOR SNOW...
$$

 *****  OTHER OBSERVATIONS SOUTHEAST NORTH DAKOTA *****

CITY           SKY/WX    TMP DP  RH WIND       PRES   REMARKS
COOPERSTOWN    NOT AVBL
VALLEY CITY    CLOUDY    10  10 100 NW7       30.26R WCI   0
OAKES          CLOUDY    14  12  92 N6        30.24R WCI   5
GWINNER        CLOUDY    16  12  86 N6        30.25R WCI   7
BUFFALO          N/A     10   4  77 NW3         N/A
WYNDMERE         N/A     12   9  85 N6          N/A  WCI   3
 ***** THE ABOVE OBSERVATIONS ARE NON NWS ARE NOT QUALITY
       CONTROLLED AND MAY MIS-REPORT RAIN FOR SNOW...
$$

  *****  WEATHER ACROSS NORTHERN MINNESOTA  *****

CITY           SKY/WX    TMP DP  RH WIND       PRES   REMARKS
FLAG ISLAND    CLEAR      7   0  72 NW17      30.18R WCI -12
WARROAD        MOCLDY     9   1  72 W12       30.20S WCI  -6
ROSEAU         CLOUDY     9   3  78 NW8       30.22R WCI  -4
HALLOCK        CLOUDY     9   3  78 NW10      30.29R WCI  -6
THF RVR FALLS  CLOUDY    10   9  92 NW9       30.24R WCI  -2
HALSTAD          N/A     12   9  86 NW6         N/A  WCI   3
FOSSTON        FLURRIES   7   1  78 NW5       30.23R WCI  -2
BAUDETTE       CLOUDY    10   1  67 W10       30.16R WCI  -4
WASKISH        CLOUDY     9   3  78 W7        30.18R WCI  -3
CROOKSTON      CLOUDY    10   7  85 NW5       30.28R WCI   2
$$
  *****  WEATHER ACROSS CENTRAL AND WEST MINNESOTA  *****

CITY           SKY/WX    TMP DP  RH WIND       PRES   REMARKS
BEMIDJI        CLOUDY     9   1  68 W9        30.18S WCI  -4
PARK RAPIDS    CLOUDY    12   1  61 NW9       30.17R WCI   0
WADENA         CLOUDY    12   5  73 NW8       30.19S WCI   1
DETROIT LAKES  CLOUDY    12   7  79 NW7       30.22R WCI   2
MOORHEAD       CLOUDY    12   5  73 NW7       30.27R WCI   2
FERGUS FALLS   FLURRIES  12   9  85 N6        30.26S WCI   3
ELBOW LAKE     LGT SNOW  13  10  90 NW3       30.22R
MORRIS MN      LGT SNOW  16  10  79 CALM      30.22R
STAPLES        CLOUDY    12   7  79 W6        30.19S WCI   3
WHEATON        CLOUDY    16  12  86 NW5       30.27R WCI   9
$$
  *****  WEATHER ELSEWHERE ACROSS MINNESOTA  *****

CITY           SKY/WX    TMP DP  RH WIND       PRES   REMARKS
DULUTH         CLOUDY    11  -2  56 W12       30.12R WCI  -3
INTRNTL FALLS  CLOUDY     9  -2  61 W8        30.13R WCI  -3
ELY            CLOUDY     7  -2  66 W7        30.08S WCI  -5
CLOQUET        CLOUDY    12  -2  52 W8        30.14S WCI   1
BRAINERD       CLOUDY    13   4  67 W6        30.19S WCI   4
HIBBING        CLOUDY     9  -6  50 W8        30.12S WCI  -3
ALEXANDRIA     CLOUDY    13   9  84 NW3       30.19S FOG
SAINT CLOUD    LGT SNOW  13  10  88 S6        30.22S FOG     WCI   4
MINNEAPOLIS    FLURRIES  16   6  65 SW5       30.25R WCI   9
$$

  *****  WEATHER ACROSS SOUTH DAKOTA  *****

CITY           SKY/WX    TMP DP  RH WIND       PRES   REMARKS
SIOUX FALLS    LGT SNOW  16  13  88 CALM      30.19R FOG
BROOKINGS      FLURRIES  15  12  88 CALM      30.17R
WATERTOWN      CLOUDY    15  12  88 NW3       30.16R
HURON          MOCLDY    17  16  95 CALM      30.21R
SISSETON         N/A     15  11  83 N8        30.23R WCI   4
ABERDEEN       MOCLDY    18  12  77 N8        30.23R WCI   8
MITCHELL       MOCLDY    18  15  88 E5        30.21R WCI  11
PIERRE         CLOUDY    28  24  85 NE3       30.19R
MOBRIDGE       CLOUDY    28  23  81 N7        30.18R WCI  21
RAPID CITY     MOCLDY    38  31  76 N13       30.14R
$$

  *****  SOME WEATHER IN NEARBY STATES *****

CITY           SKY/WX    TMP DP  RH WIND       PRES   REMARKS
GLASGOW MT     CLOUDY    31  24  75 CALM      30.24R
GREAT FALLS MT CLOUDY    45  30  55 NE9       30.24R
CHEYENNE WY    MOCLDY    45  24  43 N15G25    30.21R
SCOTTSBLUFF NE MOCLDY    42  27  55 N5        30.18R
OMAHA NE       CLOUDY    26  20  77 N5        30.20R WCI  20
DES MOINES IA  LGT SNOW  19  13  77 SE5       30.26F WCI  12
DAVENPORT IA   PTCLDY    20   8  60 CALM      30.29R
CHICAGO IL     PTCLDY    17   5  59 W5        30.27S WCI  10
EAU CLAIRE WI  CLOUDY    15  -1  49 SW8       30.23R WCI   4
LA CROSSE WI   CLOUDY    16   1  51 SW7       30.27R WCI   6
$$

  *****  SOME NATIONAL WEATHER *****

CITY           SKY/WX    TMP DP  RH WIND       PRES   REMARKS
LA GUARDIA NY  PTCLDY    22  -1  36 NW22G40   30.10R WCI   6
RALEIGH NC     CLEAR     30  11  45 CALM      30.24R
ATLANTA GA     PTCLDY    49  23  36 N10       30.16S
NEW ORLEANS LA PTCLDY    65  52  62 SW7       30.19R
OKLAHOMA CITY  CLOUDY    50  30  46 N5        30.15R
ALBUQUERQUE NM PTCLDY    62  12  14 NW13      30.28R
SALT LAKE CITY MOCLDY    30  26  85 NW10      30.45R FOG     WCI  21
LOS ANGELES CA PTCLDY    70  45  40 W7        30.07S
BOISE ID       CLOUDY    44  35  70 SW9       30.31F
SEATTLE WA     LGT RAIN  51  49  92 W5        30.11R
$$

*** WEATHER ACROSS MANITOBA...SASKATCHEWAN AND ONTARIO ***
                ***ONTARIO***

CITY           SKY/WX    TMP DP  RH WIND       PRES   REMARKS
GERALDTON      CLOUDY     5  -2  72 W8        29.90F WCI  -8
THUNDER BAY    MOCLDY     9   1  72 W8        30.07R WCI  -4
SIOUX LOOKOUT  PTCLDY     5  -2  72 NW8       30.02R WCI  -8
TORONTO        PTCLDY     9  -2  61 W13       30.18S WCI  -7
BIG TROUT LK   CLOUDY   -22 -29  69 NW10G18   30.08R HAZE    WCI -44
PICKLE LAKE    FLURRIES  -2 -11  65 NW10G22   29.95R WCI -19
DRYDEN         MOCLDY     5   1  85 W14       30.04S WCI -12
KENORA         CLEAR      3  -2  78 NW9       30.12R WCI -11
$$
                *** MANITOBA***

CITY           SKY/WX    TMP DP  RH WIND       PRES   REMARKS
BRANDON        PTCLDY     3   0  85 NW8       30.28S WCI -10
DAUPHIN        CLEAR     -6  -9  84 W6        30.33R WCI -18
ISLAND LAKE    FLURRIES -15 -22  70 NW9       30.22R WCI -33
PILOT MOUND      N/A      3   1  92 NW6         N/A  WCI  -8
THE PAS        CLEAR     -2  -9  71 NW12G17   30.39R WCI -20
THOMPSON       CLEAR    -18 -26  69 NW8       30.37R WCI -37
WINNIPEG       CLEAR      1  -6  71 NW14      30.28R WCI -17
LYNN LAKE      CLEAR    -20 -27  69 N14G20    30.44R WCI -44
CHURCHILL      CRYSTALS -24 -31  69 N24G33    30.31R VSB 3/4 WCI -56
GILLAM         CLEAR    -20 -29  63 NW23G29   30.28R WCI -50
$$
                ***SASKATCHEWAN***

CITY           SKY/WX    TMP DP  RH WIND       PRES   REMARKS
ESTEVAN        FLURRIES  19  14  79 N10       30.27R WCI   8
KINDERSLEY     FLURRIES  16  14  93 E10       30.29R WCI   3
LLOYDMINSTER   FLURRIES  10   9  92 E8        30.34R WCI  -1
PRINCE ALBERT  PTCLDY     0  -6  78 N5        30.42R WCI -10
REGINA         CLOUDY    12   7  79 N12       30.31R WCI  -2
YORKTON        MOCLDY     1  -4  78 W12       30.32R WCI -15
N. BATTLEFORD  FLURRIES  10   9  92 E3        30.41R   C1F1C2F2C3F3C4F4C5F5C6F6C7F7C8F8C9F9CaFaCbFbCcFcCdFdCe!



USA.gov is the U.S. government's official web portal to all federal, state and local government web resources and services.